Location: Amsterdam
(30.7274°N, 84.4357°W)
Time: 20:04:46
(UTC+00:00)

Altair - Pass Details

Date: 06 August 2024
Orbit: 1501 x 1682 km, 47.2° (Epoch: 07 September)

Event Time Altitude Azimuth Distance (km) Brightness Sun altitude
Rises 00:49:02 0° 309° (NW) 4,708 11.8 -4.9°
Reaches altitude 10° 00:52:13 10° 314° (NW) 3,704 10.9 -5.5°
Maximum altitude 01:01:21 58° 32° (NNE) 1,718 7.8 -7.3°
Enters shadow 01:10:15 10° 110° (ESE) 3,624 8.8 -9.1°
Drops below altitude 10° 01:10:19 10° 111° (ESE) 3,646 - -9.1°
Sets 01:13:25 0° 115° (ESE) 4,630 - -9.7°
